Location: Cisewo
(53.3833°N, 14.9000°E)
Time: 15:30:08
(UTC+00:00)

NOAA 18 - Pass Details

Date: 27 September 2021
Orbit: 841 x 860 km, 99.0° (Epoch: 25 October)

Event Time Altitude Azimuth Distance (km) Brightness Sun altitude
Exits shadow 21:01:34 37° 282° (WNW) 1,289 6.4 -33.8°
Drops below altitude 10° 21:05:58 10° 332° (NNW) 2,487 8.4 -34.2°
Sets 21:08:31 0° 340° (NNW) 3,430 9.4 -34.4°
